When you browse on this site, cookies collect data to enhance your experience and personalize the content and advertising you see.
Visit our Privacy Policy to learn more. By continuing to use the site, you agree to this use of cookies and data.
  • en France
  • Liste des pays
  • À 7 jours
  • Température de l'eau
  • Carte météo
  • Widgets météo
  • user-avatar
    Se connecter

    Météo par heure à Salva

    Ce jour, 6 Avril, Lundi

    Heure Température Précipitation Vent Pression Humidité
    00:00 +26°C° 0 mm 3 m/s 762 mmHg 46%
    01:00 +25°C° 0 mm 3 m/s 761 mmHg 46%
    02:00 +25°C° 0 mm 4 m/s 761 mmHg 45%
    03:00 +25°C° 0 mm 4 m/s 760 mmHg 44%
    04:00 +25°C° 0 mm 3 m/s 760 mmHg 41%
    05:00 +25°C° 0 mm 3 m/s 761 mmHg 38%
    06:00 +25°C° 0 mm 3 m/s 761 mmHg 35%
    07:00 +27°C° 0 mm 3 m/s 761 mmHg 29%
    08:00 +29°C° 0 mm 4 m/s 762 mmHg 24%
    09:00 +32°C° 0 mm 4 m/s 762 mmHg 18%
    10:00 +33°C° 0 mm 5 m/s 762 mmHg 16%
    11:00 +34°C° 0 mm 5 m/s 762 mmHg 14%
    12:00 +35°C° 0 mm 6 m/s 761 mmHg 13%
    13:00 +35°C° 0 mm 6 m/s 761 mmHg 13%
    14:00 +36°C° 0 mm 6 m/s 760 mmHg 13%
    15:00 +36°C° 0 mm 6 m/s 760 mmHg 13%
    16:00 +35°C° 0 mm 5 m/s 760 mmHg 14%
    17:00 +34°C° 0 mm 4 m/s 760 mmHg 16%
    18:00 +31°C° 0 mm 3 m/s 760 mmHg 18%
    19:00 +31°C° 0 mm 3 m/s 760 mmHg 20%
    20:00 +30°C° 0 mm 3 m/s 760 mmHg 21%
    21:00 +29°C° 0 mm 3 m/s 761 mmHg 23%
    22:00 +28°C° 0 mm 2 m/s 760 mmHg 24%
    23:00 +28°C° 0 mm 2 m/s 760 mmHg 26%

    Demain, 7 Avril, Mardi

    Heure Température Précipitation Vent Pression Humidité
    00:00 +27°C° 0 mm 1 m/s 760 mmHg 27%
    01:00 +27°C° 0 mm 1 m/s 759 mmHg 27%
    02:00 +27°C° 0 mm 1 m/s 759 mmHg 27%
    03:00 +26°C° 0 mm 1 m/s 759 mmHg 27%
    04:00 +26°C° 0 mm 1 m/s 759 mmHg 26%
    05:00 +27°C° 0 mm 1 m/s 759 mmHg 26%
    06:00 +27°C° 0 mm 1 m/s 759 mmHg 25%
    07:00 +29°C° 0 mm 1 m/s 760 mmHg 22%
    08:00 +31°C° 0 mm 2 m/s 760 mmHg 18%
    09:00 +35°C° 0 mm 2 m/s 760 mmHg 15%
    10:00 +36°C° 0 mm 2 m/s 760 mmHg 14%
    11:00 +37°C° 0 mm 2 m/s 759 mmHg 13%
    12:00 +38°C° 0 mm 2 m/s 759 mmHg 13%
    13:00 +39°C° 0 mm 2 m/s 758 mmHg 13%
    14:00 +39°C° 0 mm 2 m/s 757 mmHg 13%
    15:00 +39°C° 0 mm 2 m/s 757 mmHg 13%
    16:00 +38°C° 0 mm 3 m/s 757 mmHg 14%
    17:00 +37°C° 0 mm 4 m/s 757 mmHg 16%
    18:00 +35°C° 0 mm 5 m/s 757 mmHg 17%
    19:00 +34°C° 0 mm 5 m/s 757 mmHg 19%
    20:00 +33°C° 0 mm 5 m/s 757 mmHg 21%
    21:00 +32°C° 0 mm 5 m/s 757 mmHg 22%
    22:00 +32°C° 0 mm 5 m/s 757 mmHg 23%
    23:00 +32°C° 0 mm 4 m/s 757 mmHg 23%

    Après-demain, 8 Avril, Mercredi

    Heure Température Précipitation Vent Pression Humidité
    00:00 +30°C° 0 mm 4 m/s 757 mmHg 23%
    01:00 +30°C° 0 mm 4 m/s 756 mmHg 23%
    02:00 +30°C° 0 mm 4 m/s 756 mmHg 22%
    03:00 +30°C° 0 mm 4 m/s 756 mmHg 21%
    04:00 +30°C° 0 mm 4 m/s 756 mmHg 21%
    05:00 +30°C° 0 mm 4 m/s 757 mmHg 21%
    06:00 +30°C° 0 mm 4 m/s 757 mmHg 20%
    07:00 +33°C° 0 mm 4 m/s 757 mmHg 19%
    08:00 +35°C° 0 mm 3 m/s 758 mmHg 17%
    09:00 +37°C° 0 mm 3 m/s 758 mmHg 15%
    10:00 +38°C° 0 mm 4 m/s 757 mmHg 14%
    11:00 +41°C° 0 mm 4 m/s 757 mmHg 13%
    12:00 +43°C° 0 mm 5 m/s 756 mmHg 11%
    13:00 +43°C° 0 mm 4 m/s 756 mmHg 11%
    14:00 +44°C° 0 mm 4 m/s 755 mmHg 11%
    15:00 +44°C° 0 mm 3 m/s 754 mmHg 11%
    16:00 +43°C° 0 mm 3 m/s 754 mmHg 12%
    17:00 +42°C° 0 mm 4 m/s 754 mmHg 13%
    18:00 +41°C° 0 mm 4 m/s 754 mmHg 14%
    19:00 +40°C° 0 mm 4 m/s 755 mmHg 16%
    20:00 +37°C° 0 mm 5 m/s 755 mmHg 18%
    21:00 +36°C° 0 mm 6 m/s 755 mmHg 20%
    22:00 +35°C° 0 mm 5 m/s 755 mmHg 21%
    23:00 +35°C° 0 mm 5 m/s 755 mmHg 22%

    9 Avril, Jeudi

    Heure Température Précipitation Vent Pression Humidité
    00:00 +34°C° 0 mm 4 m/s 755 mmHg 23%
    01:00 +34°C° 0 mm 4 m/s 755 mmHg 22%
    02:00 +34°C° 0 mm 3 m/s 755 mmHg 21%
    03:00 +33°C° 0 mm 3 m/s 754 mmHg 20%
    04:00 +33°C° 0 mm 3 m/s 755 mmHg 20%
    05:00 +33°C° 0 mm 3 m/s 755 mmHg 19%
    06:00 +33°C° 0 mm 3 m/s 756 mmHg 19%
    07:00 +35°C° 0 mm 3 m/s 756 mmHg 17%
    08:00 +37°C° 0 mm 3 m/s 757 mmHg 15%
    09:00 +39°C° 0 mm 3 m/s 757 mmHg 13%
    10:00 +42°C° 0 mm 3 m/s 756 mmHg 12%
    11:00 +43°C° 0 mm 4 m/s 756 mmHg 11%
    12:00 +45°C° 0 mm 4 m/s 755 mmHg 10%
    13:00 +45°C° 0 mm 4 m/s 755 mmHg 10%
    14:00 +45°C° 0 mm 4 m/s 754 mmHg 10%
    15:00 +47°C° 0 mm 4 m/s 754 mmHg 10%
    16:00 +43°C° 0 mm 5 m/s 754 mmHg 14%
    17:00 +41°C° 0 mm 6 m/s 754 mmHg 19%
    18:00 +38°C° 0 mm 6 m/s 754 mmHg 23%
    19:00 +36°C° 0 mm 6 m/s 754 mmHg 25%
    20:00 +36°C° 0 mm 6 m/s 755 mmHg 27%
    21:00 +35°C° 0 mm 6 m/s 755 mmHg 28%
    22:00 +34°C° 0 mm 6 m/s 755 mmHg 28%
    23:00 +34°C° 0 mm 5 m/s 755 mmHg 29%

    10 Avril, Vendredi

    Heure Température Précipitation Vent Pression Humidité
    00:00 +34°C° 0 mm 5 m/s 754 mmHg 29%
    01:00 +34°C° 0 mm 5 m/s 754 mmHg 28%
    02:00 +33°C° 0 mm 5 m/s 754 mmHg 27%
    03:00 +33°C° 0 mm 4 m/s 753 mmHg 26%
    04:00 +33°C° 0 mm 5 m/s 754 mmHg 24%
    05:00 +33°C° 0 mm 5 m/s 754 mmHg 22%
    06:00 +33°C° 0 mm 5 m/s 754 mmHg 21%
    07:00 +36°C° 0 mm 6 m/s 755 mmHg 18%
    08:00 +39°C° 0 mm 6 m/s 755 mmHg 15%
    09:00 +43°C° 0 mm 7 m/s 755 mmHg 12%
    10:00 +44°C° 0 mm 7 m/s 755 mmHg 11%
    11:00 +46°C° 0 mm 7 m/s 755 mmHg 9%
    12:00 +47°C° 0 mm 7 m/s 754 mmHg 8%
    13:00 +47°C° 0 mm 7 m/s 754 mmHg 8%
    14:00 +47°C° 0 mm 6 m/s 753 mmHg 7%
    15:00 +47°C° 0 mm 6 m/s 753 mmHg 7%
    16:00 +46°C° 0 mm 5 m/s 753 mmHg 8%
    17:00 +44°C° 0 mm 4 m/s 753 mmHg 9%
    18:00 +42°C° 0 mm 4 m/s 753 mmHg 10%
    19:00 +41°C° 0 mm 4 m/s 754 mmHg 11%
    20:00 +40°C° 0 mm 4 m/s 754 mmHg 12%
    21:00 +38°C° 0 mm 4 m/s 755 mmHg 13%
    22:00 +38°C° 0 mm 4 m/s 754 mmHg 14%
    23:00 +37°C° 0 mm 4 m/s 754 mmHg 15%

    11 Avril, Samedi

    Heure Température Précipitation Vent Pression Humidité
    00:00 +36°C° 0 mm 4 m/s 754 mmHg 16%
    01:00 +35°C° 0 mm 4 m/s 754 mmHg 16%
    02:00 +35°C° 0 mm 4 m/s 754 mmHg 16%
    03:00 +34°C° 0 mm 4 m/s 753 mmHg 15%
    04:00 +34°C° 0 mm 5 m/s 754 mmHg 15%
    05:00 +34°C° 0 mm 5 m/s 754 mmHg 15%
    06:00 +34°C° 0 mm 6 m/s 755 mmHg 15%
    07:00 +36°C° 0 mm 7 m/s 755 mmHg 14%
    08:00 +39°C° 0 mm 8 m/s 756 mmHg 12%
    09:00 +42°C° 0 mm 9 m/s 756 mmHg 11%
    10:00 +44°C° 0 mm 9 m/s 756 mmHg 10%
    11:00 +45°C° 0 mm 9 m/s 755 mmHg 9%
    12:00 +47°C° 0 mm 9 m/s 755 mmHg 8%
    13:00 +47°C° 0 mm 9 m/s 754 mmHg 9%
    14:00 +47°C° 0 mm 9 m/s 754 mmHg 9%
    15:00 +46°C° 0 mm 8 m/s 753 mmHg 9%
    16:00 +45°C° 0 mm 7 m/s 753 mmHg 9%
    17:00 +44°C° 0 mm 6 m/s 753 mmHg 10%
    18:00 +42°C° 0 mm 5 m/s 753 mmHg 10%
    19:00 +41°C° 0 mm 5 m/s 754 mmHg 12%
    20:00 +40°C° 0 mm 5 m/s 754 mmHg 14%
    21:00 +39°C° 0 mm 6 m/s 754 mmHg 15%
    22:00 +37°C° 0 mm 5 m/s 754 mmHg 17%
    23:00 +36°C° 0 mm 4 m/s 754 mmHg 18%
    Voir plus